Simultaneous Nadir Overpasses (SNOs) Predictions

Prediction of SNOs between LANDSAT-8 and METOP-B Satellite Orbit:

Table of predicted SNOs for the next 14.0 days since TLE Epoch: 1/18/2025
Index Date (LANDSAT-8) Time (LANDSAT-8) Lat,Lon (LANDSAT-8) SZA (LANDSAT-8 ) Date (METOP-B) Time (METOP-B) Lat,Lon (METOP-B) SZA (METOP-B ) Distance(km) Time Diff (sec)
1 01/18/2025 05:27:39 81.42, 143.11 104.02 01/18/2025 05:27:13 81.43, 143.29 104.04 3.21 26
2 01/18/2025 06:17:05 -81.43, -49.00 75.96 01/18/2025 06:17:53 -81.43, -48.93 75.93 1.14 48
3 01/21/2025 01:01:51 81.42,-150.42 103.41 01/21/2025 01:01:48 81.43,-150.28 103.43 2.51 3
4 01/21/2025 01:51:17 -81.44, 17.50 76.57 01/21/2025 01:52:28 -81.43, 17.54 76.54 0.61 71
5 01/23/2025 19:46:37 -81.42, 108.40 77.26 01/23/2025 19:45:44 -81.43, 108.46 77.27 1.25 53
6 01/23/2025 20:36:03 81.43, -83.88 102.75 01/23/2025 20:36:24 81.43, -83.97 102.75 1.55 21
7 01/26/2025 15:20:48 -81.43, 175.03 77.94 01/26/2025 15:20:19 -81.43, 175.09 77.95 0.89 29
8 01/26/2025 16:10:14 81.43, -17.27 102.06 01/26/2025 16:10:59 81.43, -17.37 102.07 1.70 45
9 01/29/2025 10:54:58 -81.42,-118.66 78.72 01/29/2025 10:54:54 -81.43,-118.81 78.73 2.55 4



Historial Predications of SNOs between LANDSAT-8 and METOP-B
